sat.trackr.live / text

‹ back to catalog

COSMOS 2582

NORAD 62903 · 2025-026B

PAYLOAD ACTIVE UNKNOWN

§ Identity

Operator
Country
CIS
Launch date
2025-02-05
Launch site
PLMSC
Launch vehicle
Mass (kg)
RCS (m²)

External: N2YO · Heavens-Above · Gunter

§ Orbital elements

Epoch: 2026-05-24T17:29:20.497344Z

Period
96.33 min
Inclination
81.9946°
Eccentricity
0.0011255
Mean motion
14.94918120 rev/d
Perigee alt
574.8 km
Apogee alt
590.5 km
Semi-major
6,960.8 km
B*
8.9714e-5
RAAN
98.4322°
Arg perigee
127.5552°
Mean anomaly
232.6692°
Rev number
7,070

§ Raw data

COSMOS 25821 62903U 25026B   26144.72870946  .00001004  00000+0  89714-4 0  99922 62903  81.9946  98.4322 0011255 127.5552 232.6692 14.94918120 70701

JSON: /api/v1/satellites/62903 · /tle

For live sub-satellite position, see the globe view (requires WebGL).

§ Visibility from observer

Set your observer location to see the next 7 days of passes ≥ 10°. The values pass through the URL so the page stays shareable.

No JS? Fill the form by hand. The geolocation button needs JavaScript.

§ Radio — SatNOGS DB

ModeDescriptionDownlinkUplink
FM S-band telemetry 2.280 GHz

1 transmitter · refreshed weekly from db.satnogs.org